When you browse on this site, cookies collect data to enhance your experience and personalize the content and advertising you see.
Visit our Privacy Policy to learn more. By continuing to use the site, you agree to this use of cookies and data.
  • In Hungary
  • List of Countries
  • For 7 days
  • Water Temperature
  • Weather Map
  • News
  • Weather Widgets
  • user-avatar
    Login

    Hourly Weather Gay

    Today, 18 November, Monday

    Time Temperature Precipitation Wind Pressure Humidity
    00:00 -3°C° 0 mm 4 mps 737 mmHg 84%
    01:00 -2°C° 0 mm 4 mps 737 mmHg 85%
    02:00 -3°C° 0 mm 4 mps 737 mmHg 87%
    03:00 -3°C° 0 mm 4 mps 737 mmHg 88%
    04:00 -3°C° 0 mm 4 mps 737 mmHg 91%
    05:00 -2°C° 0 mm 4 mps 737 mmHg 90%
    06:00 -2°C° 0 mm 4 mps 737 mmHg 89%
    07:00 -1°C° 0 mm 3 mps 737 mmHg 87%
    08:00 -1°C° 0 mm 3 mps 737 mmHg 86%
    09:00 -1°C° 0 mm 3 mps 737 mmHg 84%
    10:00 -1°C° 0 mm 4 mps 737 mmHg 83%
    11:00 -1°C° 0 mm 4 mps 737 mmHg 81%
    12:00 -1°C° 0 mm 4 mps 736 mmHg 80%
    13:00 -1°C° 0 mm 4 mps 736 mmHg 78%
    14:00 -1°C° 0 mm 4 mps 736 mmHg 80%
    15:00 0°C° 0 mm 3 mps 736 mmHg 81%
    16:00 -1°C° 0 mm 3 mps 736 mmHg 78%
    17:00 -1°C° 0 mm 3 mps 736 mmHg 82%
    18:00 -1°C° 0 mm 3 mps 735 mmHg 86%
    19:00 -2°C° 0 mm 3 mps 735 mmHg 90%
    20:00 -2°C° 0.1 mm 3 mps 735 mmHg 92%
    21:00 -2°C° 0.1 mm 3 mps 734 mmHg 94%
    22:00 -2°C° 0.1 mm 3 mps 734 mmHg 96%
    23:00 -2°C° 0.3 mm 3 mps 734 mmHg 96%

    Tomorrow, 19 November, Tuesday

    Time Temperature Precipitation Wind Pressure Humidity
    00:00 -2°C° 0.3 mm 3 mps 733 mmHg 96%
    01:00 -2°C° 0.3 mm 3 mps 733 mmHg 96%
    02:00 -2°C° 0.9 mm 3 mps 733 mmHg 97%
    03:00 -2°C° 0.9 mm 3 mps 733 mmHg 97%
    04:00 -2°C° 0.9 mm 3 mps 733 mmHg 97%
    05:00 -4°C° 0.2 mm 4 mps 733 mmHg 96%
    06:00 -5°C° 0.2 mm 5 mps 733 mmHg 94%
    07:00 -6°C° 0.2 mm 5 mps 733 mmHg 93%
    08:00 -8°C° 0.1 mm 6 mps 734 mmHg 92%
    09:00 -9°C° 0.1 mm 7 mps 734 mmHg 90%
    10:00 -11°C° 0.1 mm 7 mps 735 mmHg 89%
    11:00 -12°C° 0.1 mm 7 mps 735 mmHg 89%
    12:00 -13°C° 0.1 mm 7 mps 735 mmHg 88%
    13:00 -14°C° 0.1 mm 7 mps 736 mmHg 88%
    14:00 -15°C° 0.1 mm 7 mps 736 mmHg 88%
    15:00 -17°C° 0.1 mm 7 mps 737 mmHg 89%
    16:00 -17°C° 0.1 mm 7 mps 737 mmHg 89%
    17:00 -18°C° 0.1 mm 7 mps 738 mmHg 89%
    18:00 -19°C° 0.1 mm 7 mps 738 mmHg 88%
    19:00 -20°C° 0.1 mm 7 mps 738 mmHg 88%
    20:00 -21°C° 0 mm 7 mps 739 mmHg 85%
    21:00 -23°C° 0 mm 7 mps 739 mmHg 83%
    22:00 -24°C° 0 mm 7 mps 740 mmHg 80%
    23:00 -24°C° 0 mm 7 mps 740 mmHg 81%

    Day after tomorrow, 20 November, Wednesday

    Time Temperature Precipitation Wind Pressure Humidity
    00:00 -25°C° 0 mm 7 mps 740 mmHg 81%
    01:00 -26°C° 0 mm 7 mps 741 mmHg 82%
    02:00 -26°C° 0 mm 7 mps 741 mmHg 83%
    03:00 -26°C° 0 mm 7 mps 742 mmHg 84%
    04:00 -27°C° 0 mm 7 mps 742 mmHg 85%
    05:00 -27°C° 0 mm 7 mps 742 mmHg 85%
    06:00 -29°C° 0 mm 7 mps 743 mmHg 84%
    07:00 -29°C° 0 mm 7 mps 743 mmHg 84%
    08:00 -29°C° 0 mm 7 mps 743 mmHg 84%
    09:00 -29°C° 0 mm 7 mps 744 mmHg 84%
    10:00 -27°C° 0 mm 7 mps 744 mmHg 83%
    11:00 -27°C° 0 mm 6 mps 744 mmHg 82%
    12:00 -26°C° 0 mm 6 mps 744 mmHg 80%
    13:00 -26°C° 0 mm 6 mps 745 mmHg 79%
    14:00 -26°C° 0 mm 6 mps 745 mmHg 81%
    15:00 -26°C° 0 mm 6 mps 745 mmHg 82%
    16:00 -26°C° 0 mm 6 mps 745 mmHg 84%
    17:00 -26°C° 0 mm 6 mps 746 mmHg 85%
    18:00 -26°C° 0 mm 6 mps 746 mmHg 85%
    19:00 -26°C° 0 mm 6 mps 746 mmHg 86%
    20:00 -25°C° 0 mm 5 mps 746 mmHg 86%
    21:00 -25°C° 0 mm 5 mps 747 mmHg 87%
    22:00 -25°C° 0 mm 5 mps 747 mmHg 87%
    23:00 -25°C° 0 mm 5 mps 747 mmHg 87%

    21 November, Thursday

    Time Temperature Precipitation Wind Pressure Humidity
    00:00 -25°C° 0 mm 5 mps 747 mmHg 88%
    01:00 -24°C° 0 mm 4 mps 748 mmHg 88%
    02:00 -24°C° 0 mm 4 mps 748 mmHg 88%
    03:00 -24°C° 0 mm 4 mps 748 mmHg 88%
    04:00 -24°C° 0 mm 4 mps 748 mmHg 88%
    05:00 -23°C° 0 mm 3 mps 748 mmHg 89%
    06:00 -23°C° 0 mm 3 mps 748 mmHg 89%
    07:00 -21°C° 0 mm 2 mps 748 mmHg 89%
    08:00 -20°C° 0 mm 2 mps 748 mmHg 86%
    09:00 -19°C° 0 mm 2 mps 748 mmHg 82%
    10:00 -19°C° 0 mm 2 mps 748 mmHg 79%
    11:00 -16°C° 0 mm 1 mps 748 mmHg 76%
    12:00 -15°C° 0 mm 1 mps 748 mmHg 74%
    13:00 -14°C° 0 mm 1 mps 747 mmHg 71%
    14:00 -14°C° 0 mm 1 mps 747 mmHg 74%
    15:00 -14°C° 0 mm 1 mps 747 mmHg 77%
    16:00 -14°C° 0 mm 1 mps 747 mmHg 80%
    17:00 -14°C° 0 mm 1 mps 746 mmHg 81%
    18:00 -14°C° 0 mm 1 mps 746 mmHg 82%
    19:00 -14°C° 0 mm 1 mps 746 mmHg 82%
    20:00 -15°C° 0 mm 2 mps 746 mmHg 83%
    21:00 -15°C° 0 mm 2 mps 746 mmHg 83%
    22:00 -15°C° 0 mm 2 mps 746 mmHg 83%
    23:00 -15°C° 0 mm 2 mps 746 mmHg 83%

    22 November, Friday

    Time Temperature Precipitation Wind Pressure Humidity
    00:00 -15°C° 0 mm 2 mps 746 mmHg 82%
    01:00 -15°C° 0 mm 2 mps 745 mmHg 82%
    02:00 -15°C° 0 mm 2 mps 745 mmHg 81%
    03:00 -13°C° 0 mm 1 mps 745 mmHg 80%
    04:00 -13°C° 0 mm 1 mps 745 mmHg 80%
    05:00 -15°C° 0 mm 2 mps 745 mmHg 79%
    06:00 -15°C° 0 mm 2 mps 744 mmHg 79%
    07:00 -15°C° 0 mm 2 mps 744 mmHg 79%
    08:00 -14°C° 0 mm 2 mps 744 mmHg 77%
    09:00 -13°C° 0 mm 2 mps 744 mmHg 75%
    10:00 -12°C° 0 mm 2 mps 744 mmHg 73%
    11:00 -10°C° 0 mm 2 mps 744 mmHg 72%
    12:00 -10°C° 0 mm 2 mps 744 mmHg 71%
    13:00 -9°C° 0 mm 2 mps 744 mmHg 70%
    14:00 -10°C° 0 mm 2 mps 743 mmHg 73%
    15:00 -12°C° 0 mm 3 mps 743 mmHg 75%
    16:00 -13°C° 0 mm 3 mps 742 mmHg 78%
    17:00 -13°C° 0 mm 3 mps 742 mmHg 78%
    18:00 -13°C° 0 mm 3 mps 742 mmHg 77%
    19:00 -14°C° 0 mm 3 mps 742 mmHg 77%
    20:00 -14°C° 0 mm 3 mps 741 mmHg 76%
    21:00 -14°C° 0 mm 3 mps 741 mmHg 75%
    22:00 -14°C° 0 mm 3 mps 741 mmHg 74%
    23:00 -14°C° 0 mm 3 mps 740 mmHg 73%

    23 November, Saturday

    Time Temperature Precipitation Wind Pressure Humidity
    00:00 -14°C° 0 mm 3 mps 740 mmHg 73%
    01:00 -14°C° 0 mm 3 mps 740 mmHg 72%
    02:00 -14°C° 0 mm 3 mps 739 mmHg 73%
    03:00 -14°C° 0 mm 3 mps 739 mmHg 74%
    04:00 -14°C° 0 mm 3 mps 739 mmHg 75%
    05:00 -14°C° 0 mm 3 mps 738 mmHg 77%
    06:00 -14°C° 0 mm 3 mps 738 mmHg 79%
    07:00 -14°C° 0 mm 3 mps 738 mmHg 81%
    08:00 -12°C° 0 mm 2 mps 738 mmHg 79%
    09:00 -10°C° 0 mm 2 mps 738 mmHg 77%
    10:00 -10°C° 0 mm 2 mps 738 mmHg 75%
    11:00 -9°C° 0 mm 2 mps 738 mmHg 74%
    12:00 -9°C° 0 mm 2 mps 738 mmHg 73%
    13:00 -8°C° 0 mm 2 mps 738 mmHg 73%
    14:00 -9°C° 0 mm 2 mps 738 mmHg 77%
    15:00 -9°C° 0 mm 2 mps 738 mmHg 81%
    16:00 -10°C° 0 mm 2 mps 738 mmHg 85%
    17:00 -10°C° 0 mm 2 mps 738 mmHg 85%
    18:00 -9°C° 0 mm 1 mps 738 mmHg 86%
    19:00 -10°C° 0 mm 1 mps 738 mmHg 87%
    20:00 -10°C° 0 mm 1 mps 738 mmHg 87%
    21:00 -10°C° 0 mm 1 mps 738 mmHg 87%
    22:00 -10°C° 0 mm 1 mps 738 mmHg 87%
    23:00 -10°C° 0 mm 0 mps 738 mmHg 87%
    Show more